1530824400.51,20359,21.25,74062.3,4.87,-18.41,-18.65,0,*7D
1530824401.73,20360,21.19,74062.5,4.87,-18.49,-18.99,0,*7C
1530824402.99,20361,21.19,74060.3,4.91,-18.31,-18.59,0,*79
1530824404.22,20362,21.25,74064.3,4.89,-18.31,-18.65,0,*7C
1530824405.45,20363,21.25,74064.3,4.87,-18.41,-18.65,0,*74
1530824406.67,20364,21.19,74062.8,4.91,-18.17,-18.45,0,*75
1530824407.91,20365,21.19,74062.3,4.91,-18.45,-18.89,0,*73
1530824409.18,20366,21.25,74064.0,4.91,-18.59,-18.93,0,*76
1530824410.41,20367,21.25,74064.8,4.93,-18.45,-18.73,0,*76
1530824411.64,20368,21.19,74064.8,4.93,-18.41,-18.69,0,*76
1530824412.88,20369,21.19,74062.8,4.93,-18.41,-18.73,0,*7C
1530824414.14,20370,21.19,74060.3,4.91,-18.55,-18.89,0,*76
1530824415.42,20371,21.19,74066.5,4.93,-18.59,-18.89,0,*79
1530824416.65,20372,21.19,74062.5,4.93,-18.41,-18.69,0,*7D
1530824417.85,20373,21.25,74064.0,4.95,-18.25,-18.65,0,*74
1530824419.08,20374,21.19,74060.5,4.93,-18.11,-18.41,0,*74
1530824420.31,20375,21.19,74060.8,4.95,-18.07,-18.35,0,*77
1530824421.54,20376,21.19,74056.3,4.93,-18.25,-18.45,0,*75
1530824422.79,20377,21.19,74054.0,4.93,-18.17,-18.55,0,*74
1530824424.01,20378,21.19,74056.0,4.95,-18.21,-18.55,0,*78
1530824425.22,20379,21.19,74056.5,4.95,-18.21,-18.65,0,*7A
1530824426.44,20380,21.19,74058.0,4.95,-18.21,-18.55,0,*7F
1530824427.66,20381,21.19,74058.8,4.99,-18.17,-18.59,0,*7B
1530824428.91,20382,21.19,74060.5,4.97,-18.21,-18.55,0,*7F
1530824430.13,20383,21.19,74058.3,4.99,-18.17,-18.59,0,*79
1530824431.37,20384,21.19,74060.3,4.97,-18.35,-18.65,0,*7F
1530824432.62,20385,21.25,74062.8,4.97,-18.25,-18.55,0,*7C
1530824433.82,20386,21.19,74062.5,4.99,-18.21,-18.49,0,*78
1530824435.02,20387,21.19,74060.0,4.99,-18.25,-18.65,0,*73
1530824436.27,20388,21.19,74060.5,4.97,-18.35,-18.65,0,*73
1530824437.48,20389,21.19,74062.0,4.99,-18.21,-18.49,0,*77
1530824438.72,20390,21.19,74060.3,5.01,-18.55,-18.79,0,*7F
1530824439.91,20391,21.19,74056.8,4.99,-18.69,-19.07,0,*79
1530824441.12,20392,21.25,74060.0,4.99,-18.79,-19.13,0,*7E
1530824442.35,20393,21.19,74058.3,4.99,-18.35,-18.83,0,*7F
1530824443.59,20394,21.25,74058.0,4.99,-18.31,-18.59,0,*7B
1530824444.79,20395,21.25,74062.3,5.03,-18.41,-18.79,0,*7D
1530824445.98,20396,21.19,74062.5,5.03,-18.73,-19.07,0,*77
1530824447.21,20397,21.25,74066.5,5.01,-18.79,-19.17,0,*7F
1530824448.44,20398,21.19,74062.5,5.01,-18.79,-19.17,0,*70
1530824449.68,20399,21.19,74062.5,5.01,-18.73,-19.23,0,*7C
1530824450.94,20400,21.19,74062.0,4.99,-18.93,-19.27,0,*71
1530824452.21,20401,21.19,74060.8,5.01,-18.89,-19.31,0,*7C
1530824453.44,20402,21.25,74060.5,4.99,-18.99,-19.27,0,*79
1530824454.65,20403,21.19,74062.0,4.99,-19.13,-19.51,0,*7A
1530824455.85,20404,21.19,74062.8,4.99,-19.07,-19.51,0,*78
1530824457.11,20405,21.19,74060.8,4.99,-18.93,-19.41,0,*74
1530824458.33,20406,21.19,74060.8,4.99,-18.83,-19.23,0,*72
1530824459.54,20407,21.19,74056.8,4.99,-18.99,-19.51,0,*7D
1530824460.79,20408,21.19,74060.3,4.97,-19.03,-19.31,0,*78
1530824462.02,20409,21.19,74064.3,4.99,-19.07,-19.41,0,*74
1530824463.21,20410,21.19,74066.5,4.99,-18.69,-19.07,0,*77
1530824464.46,20411,21.19,74066.8,4.97,-18.99,-19.41,0,*75
1530824465.72,20412,21.19,74064.5,4.97,-18.99,-19.31,0,*71
1530824466.94,20413,21.19,74064.3,4.97,-18.83,-19.17,0,*7F
1530824468.21,20414,21.19,74062.5,4.97,-18.89,-19.27,0,*71
1530824469.42,20415,21.19,74060.5,4.99,-18.65,-19.13,0,*7B
1530824470.64,20416,21.19,74062.5,4.97,-18.73,-19.13,0,*71
1530824471.91,20417,21.19,74062.3,4.97,-18.89,-19.27,0,*72
1530824473.15,20418,21.19,74064.0,4.99,-18.93,-19.37,0,*79
1530824474.35,20419,21.19,74060.0,4.99,-18.99,-19.51,0,*72
1530824475.58,20420,21.19,74060.5,4.97,-18.99,-19.47,0,*71
1530824476.8,20421,21.25,74064.3,4.97,-18.83,-19.17,0,*7E
1530824478.05,20422,21.19,74056.0,4.97,-18.73,-19.27,0,*71
1530824479.31,20423,21.25,74062.3,4.97,-19.03,-19.57,0,*71
1530824480.56,20424,21.19,74062.5,4.97,-19.03,-19.57,0,*76
1530824481.78,20425,21.19,74062.8,4.97,-19.03,-19.47,0,*76
1530824483.0,20426,21.19,74062.3,4.97,-19.03,-19.47,0,*75
1530824484.25,20427,21.19,74060.3,4.95,-18.89,-19.31,0,*74
1530824485.48,20428,21.19,74060.3,4.97,-19.03,-19.47,0,*7B
1530824486.69,20429,21.19,74060.8,4.95,-19.13,-19.47,0,*79
1530824487.89,20430,21.19,74062.0,4.95,-19.03,-19.47,0,*70
1530824489.09,20431,21.19,74062.0,4.95,-19.03,-19.47,0,*71
1530824490.29,20432,21.25,74066.0,4.95,-18.73,-19.03,0,*74
1530824491.49,20433,21.19,74060.8,4.95,-18.73,-19.13,0,*74
1530824492.7,20434,21.19,74060.5,4.95,-18.73,-19.13,0,*73
1530824493.93,20435,21.19,74062.3,4.95,-18.83,-19.27,0,*7A
1530824495.16,20436,21.19,74062.5,4.95,-18.83,-19.27,0,*79
1530824496.37,20437,21.19,74064.5,4.95,-18.69,-19.17,0,*7F
1530824497.59,20438,21.19,74064.3,4.95,-18.55,-19.03,0,*7A
1530824498.79,20439,21.19,74064.3,4.95,-18.65,-19.03,0,*78
1530824500.0,20440,21.19,74064.3,4.95,-18.69,-19.13,0,*7B
1530824501.23,20441,21.25,74068.8,4.95,-18.79,-19.31,0,*7B
1530824502.48,20442,21.19,74064.5,4.97,-18.83,-19.31,0,*7F
1530824503.7,20443,21.19,74064.8,4.97,-18.73,-19.17,0,*75
1530824504.93,20444,21.19,74066.3,4.97,-18.73,-19.13,0,*76
1530824506.15,20445,21.19,74066.5,4.97,-18.65,-19.03,0,*71
1530824507.37,20446,21.19,74064.3,4.97,-18.69,-19.13,0,*7F
1530824508.62,20447,21.19,74064.3,4.97,-18.55,-19.03,0,*70
1530824509.86,20448,21.25,74066.8,4.97,-18.49,-18.89,0,*71
1530824511.06,20449,21.19,74066.0,4.99,-18.21,-18.65,0,*72
1530824512.28,20450,21.19,74064.3,4.97,-18.25,-18.65,0,*70
1530824513.5,20451,21.19,74064.5,4.99,-18.17,-18.59,0,*71
1530824514.72,20452,21.19,74064.5,4.97,-18.41,-18.83,0,*78
1530824515.92,20453,21.25,74070.0,4.99,-18.45,-18.79,0,*76
1530824517.15,20454,21.19,74066.8,4.99,-18.45,-18.93,0,*75
1530824518.38,20455,21.19,74066.3,4.99,-18.49,-18.93,0,*78
1530824519.6,20456,21.19,74062.3,4.97,-18.83,-19.13,0,*7A
1530824520.81,20457,21.19,74060.8,4.99,-18.65,-19.13,0,*7D
1530824522.03,20458,21.19,74060.3,4.99,-18.83,-19.23,0,*79
1530824523.24,20459,21.19,74062.3,4.99,-18.99,-19.51,0,*76
1530824524.49,20460,21.19,74060.8,4.99,-18.93,-19.41,0,*77
1530824525.72,20461,21.19,74062.8,4.99,-18.83,-19.27,0,*77
1530824526.93,20462,21.19,74060.5,4.99,-18.99,-19.51,0,*7E
1530824528.16,20463,21.19,74062.3,4.99,-18.99,-19.41,0,*7E
1530824529.36,20464,21.19,74064.0,4.99,-18.99,-19.51,0,*78
1530824530.57,20465,21.25,74066.3,4.99,-18.69,-19.13,0,*70
1530824531.84,20466,21.19,74062.5,4.97,-18.89,-19.31,0,*73
1530824533.05,20467,21.19,74062.8,4.99,-18.83,-19.37,0,*70
1530824534.28,20468,21.19,74064.0,4.99,-18.99,-19.41,0,*75
1530824535.48,20469,21.19,74060.5,4.99,-18.99,-19.51,0,*75
1530824536.71,20470,21.19,74066.8,4.99,-19.07,-19.41,0,*7A
1530824537.92,20471,21.19,74066.0,4.99,-18.99,-19.51,0,*7C
1530824539.15,20472,21.19,74066.8,4.99,-18.99,-19.41,0,*7E
1530824540.41,20473,21.19,74060.5,4.99,-18.93,-19.41,0,*75
1530824541.67,20474,21.19,74064.3,4.97,-19.13,-19.65,0,*73
1530824542.92,20475,21.19,74064.5,4.97,-19.17,-19.61,0,*72
1530824544.17,20476,21.19,74062.8,4.97,-18.99,-19.41,0,*74
1530824545.4,20477,21.19,74060.3,4.99,-18.49,-18.93,0,*78
1530824546.64,20478,21.19,74064.3,4.97,-18.49,-18.89,0,*72
1530824547.87,20479,21.19,74062.5,4.99,-18.83,-19.27,0,*7E
1530824549.1,20480,21.19,74066.3,4.97,-18.99,-19.47,0,*7B
1530824550.37,20481,21.19,74064.3,4.97,-18.89,-19.41,0,*7D
1530824551.6,20482,21.19,74064.3,4.99,-18.99,-19.41,0,*71
1530824552.85,20483,21.19,74062.5,4.97,-18.73,-19.27,0,*7A
1530824554.11,20484,21.19,74066.0,4.97,-19.13,-19.57,0,*7D
1530824555.39,20485,21.19,74066.0,4.97,-18.89,-19.41,0,*79
1530824556.61,20486,21.19,74060.5,4.97,-18.99,-19.47,0,*7D
1530824557.88,20487,21.19,74064.8,4.97,-18.89,-19.31,0,*7C
1530824559.1,20488,21.19,74062.8,4.97,-19.03,-19.47,0,*71
1530824560.36,20489,21.19,74066.0,4.97,-19.03,-19.57,0,*71
1530824561.58,20490,21.19,74064.3,4.97,-18.99,-19.47,0,*7A
1530824562.82,20491,21.19,74062.5,4.97,-18.89,-19.47,0,*7A
1530824564.08,20492,21.19,74062.0,4.97,-19.03,-19.57,0,*7B
1530824565.34,20493,21.19,74062.5,4.97,-19.13,-19.61,0,*7E
1530824566.6,20494,21.19,74064.0,4.97,-19.13,-19.65,0,*7D
1530824567.87,20495,21.19,74060.8,4.97,-18.89,-19.41,0,*78
1530824569.12,20496,21.19,74062.5,4.97,-19.03,-19.57,0,*7F
1530824570.36,20497,21.19,74060.8,4.95,-19.03,-19.57,0,*7C
1530824571.6,20498,21.19,74060.0,4.95,-19.13,-19.61,0,*77
1530824572.83,20499,21.19,74062.5,4.95,-19.03,-19.61,0,*77
1530824574.05,20500,21.19,74064.5,4.95,-18.89,-19.47,0,*71
1530824575.28,20501,21.19,74060.0,4.95,-18.99,-19.61,0,*75
1530824576.52,20502,21.19,74060.8,4.95,-19.13,-19.61,0,*75
1530824577.76,20503,21.19,74058.3,4.95,-19.03,-19.57,0,*70
1530824579.0,20504,21.19,74062.0,4.95,-19.13,-19.57,0,*76
1530824580.23,20505,21.19,74062.5,4.95,-19.03,-19.61,0,*73
1530824581.49,20506,21.19,74056.5,4.93,-19.07,-19.61,0,*72
1530824582.75,20507,21.19,74062.3,4.93,-19.17,-19.65,0,*76
1530824583.99,20508,21.19,74058.5,4.93,-19.17,-19.71,0,*7C
1530824585.24,20509,21.19,74062.0,4.95,-18.89,-19.31,0,*79
1530824586.46,20510,21.19,74064.8,4.93,-19.03,-19.47,0,*75
1530824587.72,20511,21.19,74066.8,4.93,-19.07,-19.61,0,*74
1530824588.98,20512,21.19,74066.8,4.93,-19.07,-19.61,0,*77
1530824590.23,20513,21.19,74066.8,4.93,-18.89,-19.47,0,*75
1530824591.46,20514,21.19,74070.0,4.95,-18.83,-19.31,0,*7F
1530824592.69,20515,21.19,74064.3,4.93,-19.07,-19.51,0,*73
1530824593.93,20516,21.19,74064.5,4.95,-19.13,-19.61,0,*70
1530824595.16,20517,21.19,74066.0,4.95,-19.03,-19.41,0,*72
1530824596.38,20518,21.19,74064.8,4.95,-18.55,-19.03,0,*79
1530824597.61,20519,21.19,74062.8,4.95,-18.79,-19.31,0,*77
1530824598.87,20520,21.19,74062.5,4.93,-18.93,-19.51,0,*79
1530824600.09,20521,21.19,74060.8,4.95,-18.83,-19.31,0,*79
1530824601.35,20522,21.19,74066.5,4.95,-18.89,-19.31,0,*70
1530824602.6,20523,21.19,74064.5,4.93,-19.03,-19.61,0,*71
1530824603.86,20524,21.19,74062.8,4.93,-19.07,-19.61,0,*72
1530824605.12,20525,21.19,74064.8,4.93,-19.07,-19.61,0,*73
1530824606.38,20526,21.19,74066.8,4.93,-19.17,-19.61,0,*71
1530824607.63,20527,21.19,74066.5,4.93,-19.07,-19.61,0,*71
1530824608.86,20528,21.19,74068.5,4.93,-19.03,-19.51,0,*79
1530824610.12,20529,21.19,74064.5,4.93,-19.07,-19.61,0,*7F
1530824611.35,20530,21.19,74064.3,4.93,-19.03,-19.51,0,*70
1530824612.6,20531,21.19,74064.0,4.93,-18.93,-19.47,0,*7E
1530824613.86,20532,21.19,74066.8,4.93,-18.93,-19.47,0,*7D
1530824615.09,20533,21.19,74066.8,4.93,-18.73,-19.17,0,*77
1530824616.35,20534,21.19,74064.8,4.93,-18.93,-19.37,0,*7C
1530824617.58,20535,21.19,74064.3,4.93,-19.03,-19.51,0,*75
1530824618.84,20536,21.19,74068.3,4.93,-18.79,-19.31,0,*7C
1530824620.07,20537,21.19,74066.8,4.91,-18.59,-19.07,0,*78
1530824621.35,20538,21.19,74068.0,4.93,-18.59,-18.93,0,*79
1530824622.6,20539,21.19,74070.0,4.93,-18.79,-19.31,0,*73
1530824623.86,20540,21.19,74068.3,4.93,-18.73,-19.31,0,*77
1530824625.09,20541,21.19,74064.0,4.97,-18.69,-19.17,0,*7D
1530824626.32,20542,21.19,74070.3,4.93,-18.69,-19.17,0,*7A
1530824627.53,20543,21.19,74070.3,4.95,-18.69,-19.13,0,*79
1530824628.81,20544,21.19,74066.8,4.93,-18.89,-19.31,0,*76
1530824630.06,20545,21.19,74066.3,4.93,-18.89,-19.37,0,*71
1530824631.27,20546,21.19,74066.8,4.95,-18.69,-19.17,0,*78
1530824632.47,20547,21.19,74068.5,4.95,-18.65,-19.03,0,*70
1530824633.67,20548,21.19,74068.0,4.95,-18.65,-19.13,0,*7E
1530824634.9,20549,21.19,74066.8,4.95,-18.83,-19.27,0,*70
1530824636.14,20550,21.19,74068.8,4.97,-18.55,-19.03,0,*77
1530824637.35,20551,21.19,74070.8,4.95,-18.69,-19.13,0,*7A
1530824638.56,20552,21.19,74070.0,4.95,-18.65,-19.13,0,*75
1530824639.79,20553,21.19,74072.5,4.95,-18.73,-19.27,0,*74
1530824641.0,20554,21.19,74068.0,4.95,-18.69,-19.17,0,*7B
1530824642.23,20555,21.19,74068.0,4.95,-18.83,-19.31,0,*7A
1530824643.46,20556,21.19,74068.5,4.95,-18.83,-19.31,0,*79
1530824644.71,20557,21.19,74068.0,4.95,-18.89,-19.41,0,*75
1530824645.94,20558,21.19,74066.5,4.95,-18.83,-19.31,0,*77
1530824647.17,20559,21.19,74064.5,4.95,-18.83,-19.27,0,*71
1530824648.44,20560,21.19,74064.8,4.97,-18.89,-19.41,0,*73
1530824649.67,20561,21.19,74064.0,4.93,-19.03,-19.51,0,*74
1530824650.89,20562,21.19,74068.0,4.97,-18.99,-19.47,0,*76
1530824652.12,20563,21.19,74068.0,4.95,-18.73,-19.27,0,*77
1530824653.37,20564,21.19,74066.3,4.95,-18.89,-19.41,0,*75
1530824654.62,20565,21.19,74066.3,4.95,-19.13,-19.57,0,*71
1530824655.85,20566,21.19,74066.3,4.95,-19.17,-19.65,0,*77
1530824657.09,20567,21.19,74066.3,4.95,-19.17,-19.61,0,*72
1530824658.33,20568,21.19,74068.0,4.95,-19.13,-19.65,0,*7D
1530824659.56,20569,21.19,74066.8,4.95,-19.17,-19.61,0,*7C
1530824660.79,20570,21.19,74066.3,4.93,-19.03,-19.51,0,*74
1530824662.03,20571,21.19,74066.3,4.95,-19.13,-19.61,0,*71
1530824663.27,20572,21.19,74064.5,4.95,-19.17,-19.61,0,*76
1530824664.52,20573,21.19,74066.3,4.97,-19.17,-19.65,0,*71
1530824665.75,20574,21.19,74070.0,4.93,-19.17,-19.71,0,*77
1530824667.04,20575,21.19,74070.3,4.93,-19.23,-19.65,0,*74
1530824668.28,20576,21.19,74070.5,4.95,-19.13,-19.61,0,*76
1530824669.54,20577,21.19,74066.8,4.93,-19.17,-19.61,0,*75
1530824670.8,20578,21.19,74066.0,4.93,-19.17,-19.65,0,*7E
1530824672.06,20579,21.19,74068.3,4.93,-19.07,-19.65,0,*7E
1530824673.29,20580,21.19,74068.0,4.93,-19.07,-19.51,0,*7F
1530824674.55,20581,21.19,74066.8,4.93,-19.07,-19.65,0,*79
1530824675.78,20582,21.19,74066.8,4.93,-19.07,-19.51,0,*7D
1530824677.05,20583,21.19,74068.8,4.93,-18.89,-19.31,0,*7D
1530824678.28,20584,21.19,74068.5,4.93,-19.03,-19.47,0,*78
1530824679.51,20585,21.19,74066.5,4.93,-19.07,-19.51,0,*7A
1530824680.74,20586,21.19,74070.3,4.93,-19.17,-19.51,0,*78
1530824681.98,20587,21.19,74066.3,4.93,-19.17,-19.71,0,*7B
1530824683.23,20588,21.19,74064.8,4.91,-19.17,-19.65,0,*73
1530824684.49,20589,21.19,74068.5,4.93,-19.23,-19.71,0,*72
1530824685.77,20590,21.19,74064.8,4.93,-19.23,-19.65,0,*7F
1530824687.01,20591,21.19,74068.0,4.95,-19.17,-19.61,0,*7B
1530824688.29,20592,21.19,74066.5,4.93,-19.23,-19.65,0,*7D
1530824689.58,20593,21.19,74068.5,4.93,-19.23,-19.65,0,*7C
1530824690.84,20594,21.19,74066.0,4.93,-19.31,-19.71,0,*7D
1530824692.09,20595,21.19,74068.5,4.91,-19.31,-19.71,0,*7E
1530824693.34,20596,21.19,74070.8,4.91,-19.31,-19.71,0,*7D
1530824694.56,20597,21.19,74070.3,4.89,-19.41,-19.75,0,*76
1530824695.78,20598,21.19,74066.8,4.89,-19.41,-19.75,0,*79
1530824697.0,20599,21.19,74066.3,4.89,-19.23,-19.71,0,*78
1530824698.26,20600,21.19,74066.3,4.89,-19.27,-19.65,0,*7A
1530824699.5,20601,21.19,74066.3,4.89,-19.13,-19.57,0,*7D
1530824700.7,20602,21.19,74064.3,4.89,-19.13,-19.51,0,*78
1530824701.92,20603,21.19,74066.8,4.91,-19.03,-19.47,0,*76
1530824703.11,20604,21.19,74066.0,4.89,-18.99,-19.51,0,*7D
1530824704.34,20605,21.19,74066.8,4.89,-19.07,-19.57,0,*7C
1530824705.56,20606,21.19,74068.8,4.89,-19.07,-19.27,0,*78
1530824706.79,20607,21.19,74070.5,4.89,-19.13,-19.65,0,*7A
1530824708.05,20608,21.19,74070.3,4.91,-19.17,-19.65,0,*78
1530824709.31,20609,21.19,74068.0,4.89,-19.23,-19.57,0,*76
1530824710.53,20610,21.19,74066.0,4.91,-19.07,-19.51,0,*77
1530824711.78,20611,21.19,74068.8,4.89,-19.23,-19.65,0,*7E
1530824713.03,20612,21.19,74068.0,4.89,-19.27,-19.65,0,*79
1530824714.27,20613,21.19,74068.0,4.89,-19.13,-19.57,0,*7E
1530824715.5,20614,21.19,74070.8,4.87,-19.17,-19.75,0,*73
1530824716.76,20615,21.19,74068.0,4.87,-19.27,-19.71,0,*75
1530824717.99,20616,21.19,74068.5,4.89,-19.17,-19.57,0,*7F
1530824719.22,20617,21.19,74070.5,4.89,-19.27,-19.71,0,*79
1530824720.45,20618,21.19,74070.3,4.89,-19.23,-19.71,0,*72
1530824721.68,20619,21.19,74070.0,4.89,-19.17,-19.57,0,*70
1530824722.9,20620,21.19,74068.0,4.89,-18.83,-19.27,0,*71
1530824724.14,20621,21.19,74068.8,4.89,-19.13,-19.57,0,*7F
1530824725.39,20622,21.19,74068.5,4.89,-19.23,-19.65,0,*7E
1530824726.64,20623,21.19,74070.3,4.89,-19.23,-19.65,0,*7F
1530824727.9,20624,21.19,74068.5,4.89,-19.23,-19.57,0,*79
1530824729.15,20625,21.19,74064.8,4.87,-19.31,-19.75,0,*75
1530824730.4,20626,21.19,74066.8,4.85,-19.31,-19.81,0,*7F
1530824731.63,20627,21.19,74064.5,4.85,-19.31,-19.75,0,*75
1530824732.89,20628,21.19,74068.0,4.87,-19.31,-19.75,0,*78
1530824734.14,20629,21.19,74070.3,4.87,-19.31,-19.71,0,*7D
1530824735.37,20630,21.19,74070.8,4.89,-19.13,-19.65,0,*7E
1530824736.6,20631,21.19,74068.0,4.85,-18.99,-19.41,0,*76
1530824737.85,20632,21.19,74070.3,4.87,-18.99,-19.31,0,*70
1530824739.07,20633,21.19,74070.5,4.87,-18.69,-19.03,0,*7F
1530824740.31,20634,21.19,74070.5,4.87,-18.55,-19.03,0,*77
1530824741.56,20635,21.19,74072.0,4.87,-18.55,-18.99,0,*74
1530824742.78,20636,21.19,74064.3,4.87,-18.65,-19.03,0,*76
1530824744.02,20637,21.19,74070.5,4.87,-18.55,-18.99,0,*76
1530824745.26,20638,21.19,74068.0,4.87,-18.55,-18.99,0,*79
1530824746.48,20639,21.19,74068.8,4.87,-18.41,-18.83,0,*76
1530824747.74,20640,21.19,74064.8,4.91,-18.31,-18.73,0,*77
1530824748.96,20641,21.19,74068.5,4.91,-18.41,-18.73,0,*71
1530824750.21,20642,21.19,74070.3,4.91,-18.45,-18.89,0,*73
1530824751.42,20643,21.19,74068.5,4.91,-18.69,-19.07,0,*7B
1530824752.65,20644,21.19,74062.3,4.91,-18.69,-19.17,0,*7D
1530824753.86,20645,21.19,74066.0,4.89,-18.73,-19.23,0,*79
1530824755.08,20646,21.19,74064.8,4.91,-18.69,-19.07,0,*7E
1530824756.36,20647,21.19,74070.8,4.91,-18.93,-19.31,0,*7F
1530824757.58,20648,21.19,74066.0,4.91,-19.03,-19.37,0,*7E
1530824758.82,20649,21.19,74064.8,4.91,-18.79,-19.23,0,*76
1530824760.05,20650,21.19,74066.5,4.95,-18.99,-19.31,0,*77
1530824761.32,20651,21.19,74066.0,4.91,-18.93,-19.23,0,*7B
1530824762.6,20652,21.19,74064.0,4.93,-18.93,-19.23,0,*7A
1530824763.85,20653,21.19,74064.8,4.91,-18.93,-19.47,0,*7B
1530824765.14,20654,21.19,74062.8,4.93,-19.23,-19.61,0,*70
1530824766.37,20655,21.19,74066.8,4.93,-19.17,-19.51,0,*75
1530824767.6,20656,21.19,74064.3,4.95,-19.03,-19.31,0,*73
1530824768.85,20657,21.19,74066.8,4.95,-18.89,-19.31,0,*71
1530824770.11,20658,21.19,74066.3,4.91,-18.89,-19.23,0,*79
1530824771.38,20659,21.19,74064.8,4.91,-18.89,-19.31,0,*7B
1530824772.63,20660,21.19,74066.3,4.91,-19.03,-19.31,0,*72
1530824773.86,20661,21.19,74064.3,4.93,-18.73,-19.17,0,*73
1530824775.08,20662,21.19,74066.0,4.91,-19.03,-19.47,0,*71
1530824776.31,20663,21.19,74064.3,4.93,-19.17,-19.51,0,*70
1530824777.54,20664,21.19,74064.0,4.93,-19.07,-19.51,0,*76
1530824778.77,20665,21.19,74068.3,4.93,-19.07,-19.51,0,*77
1530824779.97,20666,21.19,74064.3,4.95,-19.07,-19.47,0,*75
1530824781.21,20667,21.19,74068.0,4.93,-18.79,-19.17,0,*7F
1530824782.47,20668,21.19,74070.8,4.91,-18.59,-18.89,0,*76
1530824783.7,20669,21.19,74068.0,4.93,-18.69,-19.07,0,*71
1530824784.92,20670,21.19,74064.5,4.95,-18.55,-18.99,0,*76
1530824786.12,20671,21.19,74066.5,4.95,-18.41,-18.69,0,*7D
1530824787.37,20672,21.19,74066.3,4.93,-18.59,-19.03,0,*7C
1530824788.59,20673,21.19,74066.8,4.93,-18.73,-19.07,0,*71
1530824789.8,20674,21.19,74064.8,4.95,-18.83,-19.17,0,*7E
1530824791.07,20675,21.19,74064.3,4.93,-18.89,-19.31,0,*77
1530824792.28,20676,21.19,74066.0,4.95,-18.99,-19.37,0,*75
1530824793.53,20677,21.19,74066.3,4.93,-18.89,-19.17,0,*71
1530824794.74,20678,21.19,74068.0,4.95,-18.69,-19.13,0,*72
1530824795.97,20679,21.19,74070.3,4.93,-18.79,-19.17,0,*70
1530824797.17,20680,21.19,74064.0,4.95,-18.65,-18.99,0,*7A
1530824798.43,20681,21.19,74062.3,4.93,-18.45,-18.93,0,*75
1530824799.65,20682,21.19,74066.3,4.95,-18.35,-18.83,0,*76
1530824800.87,20683,21.19,74066.3,4.97,-18.49,-18.83,0,*7E
1530824802.09,20684,21.19,74068.3,4.97,-18.41,-18.83,0,*71
1530824803.31,20685,21.19,74064.8,4.97,-18.41,-18.83,0,*70
1530824804.55,20686,21.19,74066.5,4.97,-18.49,-18.89,0,*71
1530824805.79,20687,21.19,74068.5,4.97,-18.49,-18.89,0,*70
1530824806.99,20688,21.19,74066.3,4.99,-18.49,-18.83,0,*7B
1530824808.26,20689,21.19,74066.0,4.97,-18.55,-18.89,0,*73
1530824809.48,20690,21.19,74068.0,4.97,-18.49,-18.83,0,*7C
1530824810.72,20691,21.19,74068.8,4.97,-18.55,-18.99,0,*7B
1530824811.92,20692,21.19,74066.3,4.99,-18.21,-18.65,0,*76
1530824813.16,20693,21.19,74064.3,5.01,-18.25,-18.59,0,*7C
1530824814.36,20694,21.19,74064.8,4.99,-18.17,-18.49,0,*7B
1530824815.58,20695,21.19,74064.5,4.99,-18.35,-18.79,0,*79
1530824816.81,20696,21.19,74066.0,5.01,-18.65,-19.17,0,*76
1530824818.08,20697,21.19,74060.0,5.01,-18.55,-18.93,0,*79
1530824819.31,20698,21.19,74060.3,5.01,-18.79,-19.17,0,*75
1530824820.56,20699,21.19,74066.0,5.03,-18.93,-19.23,0,*75
1530824821.82,20700,21.19,74062.3,5.01,-18.89,-19.23,0,*7D
1530824823.04,20701,21.19,74064.8,5.01,-19.03,-19.47,0,*7D
1530824824.27,20702,21.19,74060.0,5.03,-18.93,-19.37,0,*73
1530824825.55,20703,21.19,74062.8,5.01,-18.93,-19.31,0,*76
1530824826.83,20704,21.19,74064.3,5.01,-18.93,-19.31,0,*71
1530824828.08,20705,21.19,74060.5,5.03,-18.93,-19.23,0,*71
1530824829.32,20706,21.19,74064.5,5.03,-18.89,-19.23,0,*79
1530824830.57,20707,21.19,74062.0,5.01,-18.79,-19.23,0,*75
1530824831.81,20708,21.19,74064.0,5.01,-18.79,-19.23,0,*7A
1530824833.03,20709,21.19,74064.3,5.01,-19.03,-19.47,0,*75
1530824834.26,20710,21.19,74062.3,5.01,-19.03,-19.37,0,*7A
1530824835.46,20711,21.19,74064.3,5.03,-19.03,-19.37,0,*79
1530824836.73,20712,21.19,74062.5,5.01,-18.89,-19.31,0,*7D
1530824837.95,20713,21.19,74062.8,5.03,-18.73,-19.23,0,*78
1530824839.22,20714,21.19,74062.5,5.01,-18.89,-19.23,0,*78
1530824840.48,20715,21.19,74062.5,5.01,-18.89,-19.23,0,*79
1530824841.71,20716,21.19,74064.3,5.01,-18.73,-19.17,0,*78
1530824842.95,20717,21.19,74066.0,5.01,-18.73,-19.23,0,*7E
1530824844.2,20718,21.19,74064.8,5.01,-18.79,-19.23,0,*7B
1530824845.42,20719,21.19,74066.0,5.01,-19.07,-19.51,0,*77
1530824846.7,20720,21.19,74066.3,5.01,-18.93,-19.31,0,*77
1530824847.95,20721,21.19,74064.8,5.01,-18.93,-19.37,0,*70
1530824849.21,20722,21.19,74066.0,4.99,-18.93,-19.27,0,*72
1530824850.43,20723,21.19,74064.0,4.99,-18.83,-19.23,0,*76
1530824851.68,20724,21.19,74064.3,5.03,-18.89,-19.31,0,*7A
1530824852.95,20725,21.19,74066.0,5.01,-18.89,-19.31,0,*79
1530824854.17,20726,21.19,74066.3,5.01,-18.65,-19.07,0,*7D
1530824855.38,20727,21.19,74064.3,5.01,-18.65,-19.07,0,*7C
1530824856.58,20728,21.19,74064.0,5.03,-18.73,-19.17,0,*77
1530824857.82,20729,21.19,74064.3,5.07,-18.59,-18.89,0,*7C
1530824859.05,20730,21.19,74062.3,5.01,-18.73,-19.17,0,*7C
1530824860.32,20731,21.19,74064.8,5.01,-18.59,-18.93,0,*78
1530824861.59,20732,21.19,74064.0,5.01,-18.55,-18.93,0,*77
1530824862.8,20733,21.19,74066.3,5.01,-18.73,-19.07,0,*7E
1530824864.02,20734,21.19,74064.5,5.07,-18.55,-18.99,0,*7D
1530824865.22,20735,21.19,74066.3,5.03,-18.65,-19.03,0,*79
1530824866.41,20736,21.19,74064.5,5.03,-18.65,-19.07,0,*7E
1530824867.6,20737,21.19,74062.3,5.03,-18.79,-19.07,0,*72
1530824868.8,20738,21.19,74064.5,5.03,-18.73,-19.03,0,*73
1530824870.04,20739,21.19,74064.3,5.03,-18.55,-18.93,0,*7E
1530824871.29,20740,21.19,74064.3,5.03,-18.55,-18.93,0,*70
1530824872.54,20741,21.19,74064.0,5.03,-18.59,-18.93,0,*7D
1530824873.78,20742,21.19,74062.8,5.07,-18.55,-18.89,0,*7D
1530824875.0,20743,21.19,74062.3,5.07,-18.55,-18.99,0,*7D
1530824876.22,20744,21.19,74066.0,5.07,-18.55,-18.83,0,*71
1530824877.46,20745,21.19,74062.3,5.07,-18.59,-18.89,0,*76
1530824878.69,20746,21.19,74066.5,5.09,-18.25,-18.69,0,*7E
1530824879.91,20747,21.19,74066.3,5.07,-18.25,-18.55,0,*7E
1530824881.15,20748,21.19,74064.3,5.09,-18.25,-18.55,0,*7F
1530824882.37,20749,21.19,74062.8,5.09,-18.21,-18.49,0,*77
1530824883.62,20750,21.19,74064.8,5.09,-18.11,-18.35,0,*77
1530824884.82,20751,21.19,74066.8,5.11,-18.17,-18.49,0,*72
1530824886.01,20752,21.19,74066.3,5.11,-18.21,-18.49,0,*74
1530824887.21,20753,21.19,74064.5,5.11,-18.21,-18.49,0,*75
1530824888.43,20754,21.19,74062.8,5.13,-18.17,-18.45,0,*79
1530824889.68,20755,21.19,74060.5,5.13,-18.31,-18.45,0,*7C
1530824890.87,20756,21.19,74064.5,5.11,-18.49,-18.83,0,*78
1530824892.08,20757,21.19,74066.0,5.13,-18.45,-18.79,0,*72
1530824893.3,20758,21.19,74066.8,5.13,-18.45,-18.79,0,*7D
1530824894.5,20759,21.19,74060.8,5.15,-18.45,-18.73,0,*70
1530824895.77,20760,21.19,74066.3,5.13,-18.59,-18.93,0,*7F
1530824897.01,20761,21.19,74064.0,5.13,-18.65,-18.93,0,*71
1530824898.2,20762,21.19,74064.5,5.15,-18.73,-19.03,0,*7B
1530824899.4,20763,21.19,74066.8,5.15,-18.79,-19.07,0,*74
1530824900.61,20764,21.19,74066.5,5.13,-18.73,-19.03,0,*7B
1530824901.83,20765,21.19,74064.5,5.13,-18.73,-19.03,0,*7A